Regional Weather Roundup
Issued by NWS Wilmington, NC

Current Version | Previous Version | Text Only | Print | Product List | Glossary On
Versions: 1 2 3 4 5 6 7 8 9 10 11 12 13 14 15 16 17 18 19 20 21 22 23 24 25 26 27 28 29 30 31 32 33 34 35 36 37 38 39 40 41 42 43 44 45 46 47 48 49 50
000
ASUS42 KILM 270410
RWRILM
RWRILM
REGIONAL HOURLY WEATHER ROUNDUP
NATIONAL WEATHER SERVICE WILMINGTON NC
1100 PM EST WED NOV 26 2014

NOTE: "FAIR" INDICATES FEW OR NO CLOUDS BELOW 12,000 FEET WITH NO
SIGNIFICANT WEATHER AND/OR OBSTRUCTIONS TO VISIBILITY.

...............WFO WILMINGTON COUNTY WARNING AREA...............

......COASTAL NC AND SC COUNTIES......

CITY           SKY/WX    TMP DP  RH WIND       PRES   REMARKS
WILMINGTON     CLEAR     42  41  96 CALM      30.12R
SOUTHPORT      CLEAR     43  42  96 CALM      30.12R
N MYRTLE BEACH FOG       43  42  97 CALM      30.11S VSB 1/4
MYRTLE BEACH   CLEAR     45  43  93 CALM      30.11R

......INLAND NC AND SC COUNTIES.......

CITY           SKY/WX    TMP DP  RH WIND       PRES   REMARKS
LUMBERTON      MOCLDY    41  39  93 CALM      30.08S
ELIZABETHTOWN  CLEAR     38  38 100 CALM      30.10R
WHITEVILLE     MOCLDY    41  40  97 CALM      30.11R
FLORENCE       PTCLDY    40  38  93 CALM      30.08F FOG
DARLINGTON     PTCLDY    39  36  87 S5        30.09S

....................REST OF NORTH CAROLINA......................

.........EASTERN NC.........

CITY           SKY/WX    TMP DP  RH WIND       PRES   REMARKS
CAPE HATTERAS  CLOUDY    43  40  89 NW14G20   30.06R
JACKSONVILLE   CLEAR     37  34  87 CALM      30.11R
MOREHEAD CITY  CLOUDY    45  40  82 NW13      30.10R
KENANSVILLE    CLEAR     38  38 100 CALM      30.12R
NEW BERN       CLOUDY    45  38  76 N7        30.10R
ELIZABETH CITY CLOUDY    43  37  79 W12       30.05S

.........CENTRAL NC.........

CITY           SKY/WX    TMP DP  RH WIND       PRES   REMARKS
RALEIGH DURHAM PTCLDY    37  36  93 CALM      30.07R
ROCKY MOUNT    CLEAR     35  33  92 CALM      30.07S
ROANOKE RAPIDS NOT AVBL
FAYETTEVILLE   MOCLDY    37  36  96 S5        30.08S WCI  33
HOFFMAN        MOCLDY    38  38 100 VRB1      30.08S

.........WESTERN NC.........

CITY           SKY/WX    TMP DP  RH WIND       PRES   REMARKS
CHARLOTTE      MOCLDY    42  37  82 S6        30.01F
GREENSBORO     LGT RAIN  40  38  93 SW5       30.03R
HICKORY        NOT AVBL
BOONE          NOT AVBL
ASHEVILLE      NOT AVBL

.....................REST OF SOUTH CAROLINA.....................

.........EASTERN SC.........

CITY           SKY/WX    TMP DP  RH WIND       PRES   REMARKS
CHARLESTON     CLEAR     47  42  83 SW6       30.12S
BEAUFORT MCAS  CLEAR     47  37  68 SW7       30.14R
HILTON HEAD    CLEAR     45  43  93 SW5       30.16S

.........CENTRAL SC.........

CITY           SKY/WX    TMP DP  RH WIND       PRES   REMARKS
COLUMBIA       CLEAR     42  36  79 W5        30.07S
ORANGEBURG     CLEAR     42  36  79 SW5       30.10S
SUMTER SHAW    CLEAR     41  39  94 S2        30.07R

.........WESTERN SC.........

CITY           SKY/WX    TMP DP  RH WIND       PRES   REMARKS
GREENVILLE     NOT AVBL
ROCK HILL      PTCLDY    39  37  92 SW6       30.02F WCI  35
ANDERSON       MOCLDY    46  28  49 SW7       30.06R
CLEMSON        NOT AVBL
GREENWOOD      PTCLDY    41  29  62 SW9       30.08R


...................COASTAL AND OFFSHORE REPORTS..................

................LOCAL PIERS AND NC RESERVE................


STATION/POSITION TIME  SKY/WX   TEMP    WIND        PRES    VSBY
                                AIR SEA DIR/SP/G
                 (UTC)          (F)     (DEG/KT/KT) (MB)    (MI)
JOHNY MRCER PIER 0400            46 61  290/  2/  3 1019.0R
NC RESRV MASNBRO 0300            44        CALM     1019.0S
OCEAN CREST PIER 0400            47 58  280/  4/  4 1019.1R
SPRINGMAID  PIER 0400            48 57  230/  2/  3 1019.6S


................COASTAL AND OFFSHORE BUOYS................


STATION/POSITION TIME  SKY/WX   TEMP    WIND        PRES    VSBY
                                AIR SEA DIR/SP/G
                 (UTC)          (F)     (DEG/KT/KT) (MB)    (MI)
DIMNDSHOAL 41025 0400            48     290/ 17/ 23 1017.4R
WVE H/P(F/S)= 10/ 8 WND WVE H/P(F/S)= 10/ 8

CAPE LOOKOUT     0300            46     310/ 12/ 16 1018.3R
ONSLOW BAY 41036 0300            50 67  320/ 16/ 19 1019.1R
5 WRITEBCH 41038 0300            45 59  330/ 12/ 14 1018.3R
MASONBORO  41110 0400               59                N/A
WVE H/P(F/S)=  3/10 WND WVE H/P(F/S)=  2/10

WILM HARBR 41108 0400               62                N/A
WVE H/P(F/S)=  3/ 9 WND WVE H/P(F/S)=  3/ 9

27WRITEBCH 41037 0300            49 67  350/ 16/ 17 1019.5R
FRYING PAN 41013 0400            54 71  300/ 12/ 16 1019.9R
WVE H/P(F/S)=  5/ 5 WND WVE H/P(F/S)=  3/ 5 SWL H/P/D(F/S/D)=  3/170/ 8

SUNST NRSH 41024 0300            50     290/  6/  8 1018.3R
CAPRS NRSH 41029 0300            57     240/ 16/ 17   N/A
EDISTO     41004 0400            61 74  270/ 17/ 21 1019.1R
WVE H/P(F/S)=  5/ 5 WND WVE H/P(F/S)=  3/ 5 SWL H/P/D(F/S/D)=  3/ 9



..........OFFSHORE BUOYS BEYOND 100 NM OFFSHORE...........
.....IN A TRIANGLE---HAT TO BERMUDA TO BAHAMAS TO HAT.....


STATION/POSITION TIME  SKY/WX   TEMP    WIND        PRES    VSBY
                                AIR SEA DIR/SP/G
                 (UTC)          (F)     (DEG/KT/KT) (MB)    (MI)
150E HAT   41001 NOT AVBL
W BERMUDA  41048 0321            76 75  180/ 21/ 25 1016.3F
WVE H/P(F/S)=  8/ 7 WND WVE H/P(F/S)=  7/ 7 SWL H/P/D(F/S/D)=  3/120/14

ATLANTIC S 41049 0303            79 78  120/ 16/ 19 1021.1F
WVE H/P(F/S)=  7/ 9 WND WVE H/P(F/S)=  5/ 6 SWL H/P/D(F/S/D)=  5/ 90/ 9

E BAHAMAS  41046 0325            79 81  110/ 16/ 19 1018.5S
WVE H/P(F/S)=  7/ 9 WND WVE H/P(F/S)=  5/ 6 SWL H/P/D(F/S/D)=  5/ 90/ 9

NE BAHAMAS 41047 0256            78 78  180/ 10/ 10 1019.4
WVE H/P(F/S)=  6/ 9 WND WVE H/P(F/S)=  2/ 4 SWL H/P/D(F/S/D)=  7/110/ 9

120E CANVRL41010 0400            68 77  330/ 14/ 17 1021.0R
WVE H/P(F/S)=  9/ 8 WND WVE H/P(F/S)=  5/ 6 SWL H/P/D(F/S/D)=  7/350/ 8


END


USA.gov is the U.S. government's official web portal to all federal, state and local government web resources and services.